Home   Weather   Nea Smyrni   Past weeks

Flag for Greece Past Weather in Nea Smyrni, Greece — Yesterday and Last 2 Weeks

Now
32 °F

Passing clouds.


Feels Like: 29 °F
Forecast: 40 / 63 °F
Wind: 3 mph from Northwest

Location: Eleftherios Venizelos International Airport

Current Time: Dec 9, 2016 at 4:01:34 am

Latest Report: Dec 9, 2016 at 2:50 am


Visibility: N/A

Pressure: 30.51 "Hg

Humidity: 87%

Dew Point: 28 °F

Location of Nea SmyrniLocation

Past Weather in Nea Smyrni — Graph

°F

Nea Smyrni Temperature Yesterday

Maximum temperature yesterday: 50 °F (at 12:50 am)
Minimum temperature yesterday: 36 °F (at 11:50 pm)
Average temperature yesterday: 47 °F

High & Low Weather Summary for the Past Weeks

 TemperatureHumidityPressure
High66 °F (Nov 27, 11:50 am)100% (Nov 28, 11:20 pm)30.66 "Hg (Nov 28, 11:20 pm)
Low32 °F (Dec 9, 2:20 am)34% (Dec 1, 1:50 pm)29.74 "Hg (Nov 28, 7:20 pm)
Average52 °F68%30.17 "Hg
* Reported Nov 24 2:20 am — Dec 9 2:20 am, Nea Smyrni, Weather by CustomWeather, © 2016

Note: Actual official high and low records may vary slightly from our data, if they occured in-between our weather recording intervals... More about our weather records

Advertising

Nea Smyrni Weather History for the Previous 24 Hours

Scroll right to see more
 ConditionsComfort  
Time TempWeatherWind HumidityBarometerVisibility
2:20 am
Fri, Dec 9
32 °FPassing clouds.3 mph87%30.51 "HgN/A
1:50 am34 °FPassing clouds.5 mph87%30.51 "HgN/A
1:20 am36 °FPassing clouds.3 mph81%30.51 "HgN/A
12:50 am34 °FPassing clouds.6 mph87%30.54 "HgN/A
12:20 am36 °FPassing clouds.5 mph75%30.54 "HgN/A
11:50 pm
Thu, Dec 8
36 °FPassing clouds.1 mph81%30.54 "HgN/A
11:20 pm37 °FPassing clouds.1 mph75%30.54 "HgN/A
10:50 pm41 °FPassing clouds.5 mph66%30.54 "HgN/A
10:20 pm41 °FPassing clouds.1 mph66%30.57 "HgN/A
9:50 pm43 °FPassing clouds.2 mph66%30.57 "HgN/A
9:20 pm43 °FPassing clouds.5 mph66%30.57 "HgN/A
8:50 pm45 °FPassing clouds.1 mph61%30.57 "HgN/A
8:20 pm45 °FPassing clouds.2 mph61%30.57 "HgN/A
7:50 pm45 °FPassing clouds.8 mph61%30.57 "HgN/A
7:20 pm45 °FPassing clouds.6 mph57%30.57 "HgN/A
6:50 pm45 °FPassing clouds.8 mph57%30.57 "HgN/A
6:20 pm46 °FPassing clouds.8 mph53%30.57 "HgN/A
5:50 pm46 °FPassing clouds.9 mph57%30.57 "HgN/A
5:20 pm46 °FPassing clouds.8 mph57%30.57 "HgN/A
4:50 pm48 °FScattered clouds.13 mph54%30.57 "HgN/A
4:20 pm48 °FScattered clouds.15 mph54%30.57 "HgN/A
3:50 pm50 °FScattered clouds.14 mph50%30.57 "HgN/A
3:20 pm48 °FScattered clouds.17 mph54%30.57 "HgN/A
2:50 pm50 °FScattered clouds.17 mph50%30.57 "HgN/A
1:50 pm48 °FScattered clouds.17 mph54%30.60 "HgN/A
1:20 pm48 °FScattered clouds.18 mph50%30.60 "HgN/A
12:50 pm48 °FScattered clouds.17 mph54%30.63 "HgN/A
12:20 pm48 °FPartly sunny.16 mph50%30.63 "HgN/A
11:50 am48 °FPartly sunny.15 mph50%30.63 "HgN/A
11:20 am48 °FPartly sunny.18 mph54%30.66 "HgN/A
10:50 am48 °FPartly sunny.20 mph54%30.66 "HgN/A
10:20 am48 °FPartly sunny.20 mph50%30.66 "HgN/A
9:50 am48 °FPartly sunny.20 mph54%30.66 "HgN/A
9:20 am48 °FPartly sunny.21 mph54%30.66 "HgN/A
8:50 am48 °FPartly sunny.18 mph54%30.66 "HgN/A
8:20 am48 °FPartly sunny.20 mph54%30.66 "HgN/A
7:50 am48 °FPartly sunny.22 mph50%30.63 "HgN/A
6:50 am48 °FPassing clouds.21 mph58%30.63 "HgN/A
6:20 am48 °FPassing clouds.17 mph58%30.63 "HgN/A
5:50 am48 °FPassing clouds.20 mph58%30.63 "HgN/A
5:20 am48 °FPassing clouds.18 mph58%30.63 "HgN/A
4:50 am48 °FPassing clouds.23 mph58%30.63 "HgN/A
4:20 am48 °FPassing clouds.22 mph62%30.63 "HgN/A
Weather by CustomWeather, © 2016

See weather overviewHow to use our weather pages